Regional Weather Roundup
Issued by NWS

Home | Current Version | Previous Version | Graphics & Text | Print | Product List | Glossary On
Versions: 1 2 3 4 5 6 7 8 9 10 11 12 13 14 15 16 17 18 19 20 21 22 23 24 25 26 27 28 29 30 31 32 33 34 35 36 37 38 39 40 41 42 43 44 45 46 47 48 49 50
000
ASUS43 KDTX 250410
RWRMI
MICHIGAN HOURLY REGIONAL WEATHER ROUNDUP
NATIONAL WEATHER SERVICE DETROIT/PONTIAC MI
1200 AM EDT SUN SEP 25 2016

NOTE: "FAIR" INDICATES FEW OR NO CLOUDS BELOW 12,000 FEET WITH NO
SIGNIFICANT WEATHER AND/OR OBSTRUCTION TO VISIBILITY.

MIZ047>049-052>055-059>063-066>070-074>076-081>083-250500-
SOUTHEAST LOWER MICHIGAN

CITY           SKY/WX    TMP DP  RH WIND       PRES   REMARKS
ADRIAN         CLEAR     56  54  93 E5        30.22S
ALMA           CLEAR     51  48  92 E10       30.26R
ANN ARBOR      CLEAR     54  47  77 NE5       30.22S
BAD AXE        CLEAR     44  43  97 CALM      30.26S
CARO           CLEAR     45  44  98 CALM      30.25S
DETROIT CITY   CLEAR     57  48  72 N5        30.23S
DETROIT        CLEAR     56  46  69 N5        30.23S
FLINT          CLEAR     51  46  83 E6        30.24S
GROSSE ILE     CLEAR     59  47  66 NE8       30.21S
HILLSDALE      CLEAR     55  52  88 E3        30.21S HAZE
HOWELL         CLEAR     53  48  85 NE5       30.23S

CITY           SKY/WX    TMP DP  RH WIND       PRES   REMARKS
JACKSON        CLEAR     56  51  84 NE5       30.22R
LAMBERTVILLE   CLEAR     54  53  94 CALM      30.21S
LANSING        CLEAR     53  47  79 E5        30.24R
LAPEER         FAIR      46  45  97 CALM      30.25S
MASON          CLEAR     55  49  82 E5        30.23R
MONROE         CLEAR     57  50  77 N6        30.21S
MT. CLEMENS    CLEAR     52  46  82 NW3       30.22R
PONTIAC        PTCLDY    54  45  71 CALM      30.23R
PORT HOPE        N/A     62  48  60 E10       30.24S
PORT HURON     CLEAR     45  45 100 CALM      30.24R
TRI CITIES     CLEAR     50  46  86 NE5       30.26S
MIDLAND        FAIR      48  46  91 CALM      30.25S
TROY           CLEAR     56  44  62 CALM      30.25S
SAGINAW HB     CLEAR     48  45  87 CALM      30.25R
$$
MIZ043>046-050>051-056>058-064>065-071>073-077>080-250500-
SOUTHWEST LOWER MICHIGAN

CITY           SKY/WX    TMP DP  RH WIND       PRES   REMARKS
BATTLE CREEK   CLEAR     60  53  77 E6        30.20S
BENTON HARBOR  CLEAR     63  57  81 E6        30.17R
BIG RAPIDS     CLEAR     54  49  83 CALM      30.24F
COLDWATER      CLEAR     59  53  80 CALM      30.20R
FREMONT        FAIR      56  49  78 E8        30.21F
HOLLAND        CLEAR     60  52  74 E7        30.20S
GRAND RAPIDS   CLEAR     56  50  80 E9        30.22R
IONIA          FAIR      53  48  85 NE7       30.22S
KALAMAZOO      CLEAR     60  52  74 E3        30.20R
LUDINGTON      CLEAR     56  51  84 SE7       30.20S
MARSHALL       CLEAR     57  53  86 CALM      30.21R
MOUNT PLEASANT CLEAR     49  48  93 CALM      30.25S
MUSKEGON       CLEAR     58  52  80 E8        30.20S
SOUTH HAVEN    CLEAR     62  58  87 E5        30.18R
$$
MIZ016>042-250500-
NORTHERN LOWER MICHIGAN

CITY           SKY/WX    TMP DP  RH WIND       PRES   REMARKS
ALPENA         CLEAR     44  41  89 CALM      30.28R
BEAVER ISLAND  CLEAR     54  49  81 SE7       30.23F
BELLAIRE       CLEAR     50  46  87 CALM      30.25S
CADILLAC       CLEAR     51  46  81 SE6       30.24F
CHARLEVOIX     CLEAR     55  46  73 E7        30.27S
FRANKFORT      CLEAR     56  49  78 E3        30.20F
GAYLORD        CLEAR     50  43  77 CALM      30.27S
GRAYLING       CLEAR     44  43  96 CALM      30.27S
HARBOR SPRINGS CLEAR     50  45  81 NE5       30.25F
HOUGHTON LAKE  CLEAR     47  44  90 E5        30.27S
MANISTEE       CLEAR     51  49  92 E6        30.20F
OSCODA         CLEAR     44  43  96 CALM      30.26S
PELLSTON       CLEAR     44  41  89 CALM      30.26F
ROGERS CITY    CLEAR     51  43  74 S6        30.28S
TRAVERSE CITY  CLEAR     57  48  72 SE7       30.22S
$$
MIZ007>008-015-250500-
EASTERN UPPER MICHIGAN

CITY           SKY/WX    TMP DP  RH WIND       PRES   REMARKS
KINROSS        CLOUDY    52  46  80 SE3       30.26F
MACKINAC ISLAN CLOUDY    57  46  64 SE7       30.26S
NEWBERRY       PTCLDY    49  46  88 SE3       30.24F
S. S. MARIE    CLOUDY    55  48  77 CALM      30.26S
MUNISING         N/A     52  47  83 SW3       30.21F
$$
MIZ004>006-011>014-085-250500-
CENTRAL UPPER MICHIGAN

CITY           SKY/WX    TMP DP  RH WIND       PRES   REMARKS
MANISTIQUE     CLEAR     58  49  72 SE7       30.21F
ESCANABA       CLEAR     49  48  97 CALM      30.20F
MENOMINEE      CLOUDY    57  53  86 CALM      30.19F
SAWYER-GWINN   CLEAR     51  46  83 S7        30.21F
$$
MIZ001>003-009>011-084-250500-
WESTERN UPPER MICHIGAN

CITY           SKY/WX    TMP DP  RH WIND       PRES   REMARKS
IRON MOUNTAIN  PTCLDY    56  48  74 SE3       30.18F
HOUGHTON       CLOUDY    57  51  80 SE7       30.15F
COPPER HARBOR    N/A     61  51  70 SW12G20   30.15F
IRONWOOD       CLOUDY    62  53  72 SE15G21   30.08F
$$

ABBREVIATIONS USED IN REMARKS
   TC - TEMPERATURE IN CELSIUS
  WCI - WIND CHILL INDEX
   HX - HEAT INDEX
  VSB - VISIBILITY




USA.gov is the U.S. government's official web portal to all federal, state and local government web resources and services.